Overview Statistics Trail Chart Weather Telemetry Raw packets
 

This is the latest recevied weather packets stored in our database for station/object WI0K. If no packets are shown the sender has not sent any weather packets the latest 10 day(s).

<< 99 100 101 102 103 104 105 >>
Time Temp. Humidity Pressure Rain* Wind** Luminosity Snow
1787923747 20° C 51% 1022.2 hPa 0 mm - 138 W/m² -
1787923447 20° C 52% 1022.2 hPa 0 mm - 122 W/m² -
1787923146 20° C 52% 1022.2 hPa 0 mm - 79 W/m² -
1787922846 19.44° C 52% 1022.2 hPa 0 mm - 49 W/m² -
1787922545 19.44° C 52% 1022.1 hPa 0 mm - 75 W/m² -
1787922244 18.89° C 52% 1022.1 hPa 0 mm - 53 W/m² -
1787921943 18.89° C 53% 1022.1 hPa 0 mm - 36 W/m² -
1787921642 18.89° C 54% 1022.1 hPa 0 mm - 30 W/m² -
1787921342 18.89° C 54% 1022.1 hPa 0 mm - 26 W/m² -
1787921041 18.33° C 55% 834.5 hPa 0 mm - 22 W/m² -
1787920740 18.89° C 54% 834.5 hPa 0 mm - 17 W/m² -
1787920439 18.89° C 54% 1021.9 hPa 0 mm - 11 W/m² -
1787920139 19.44° C 52% 1021.9 hPa 0 mm - 6 W/m² -
1787919838 19.44° C 51% 834.4 hPa 0 mm - 4 W/m² -
1787919538 19.44° C 51% 1021.8 hPa 0 mm - 2 W/m² -
1787919238 19.44° C 51% 834.3 hPa 0 mm - 1 W/m² -
1787918937 19.44° C 52% 834.3 hPa 0 mm - 1 W/m² -
1787918636 19.44° C 52% 834.2 hPa 0 mm - 0 W/m² -
1787918335 19.44° C 51% 1021.6 hPa 0 mm - 0 W/m² -
1787918035 19.44° C 51% 834.1 hPa 0 mm - 0 W/m² -
1787917734 19.44° C 51% 834.1 hPa 0 mm - 0 W/m² -
1787917433 19.44° C 52% 1021.6 hPa 0 mm - 0 W/m² -
1787917133 19.44° C 53% 834.1 hPa 0 mm - 0 W/m² -
1787916832 19.44° C 51% 1021.5 hPa 0 mm - 0 W/m² -
1787916531 18.89° C 52% 1021.5 hPa 0 mm - 0 W/m² -

* Rain latest hour (hover to see other rain measurements)
** Current wind speed in m/s (hover to see current wind gust speed)